Location: Sortland
(68.7020°N, 15.4240°E)
Time: 08:21:59
(UTC+01:00)

Envisat - Pass Details

Date: 25 October 2019
Orbit: 764 x 766 km, 98.1° (Epoch: 13 November)

Event Time Altitude Azimuth Distance (km) Brightness Sun altitude
Rises 18:09:46 0° 157° (SSE) 3,233 6.1 -8.4°
Reaches altitude 10° 18:12:04 10° 158° (SSE) 2,309 5.4 -8.6°
Maximum altitude 18:17:11 84° 247° (WSW) 780 3.1 -9.0°
Drops below altitude 10° 18:22:19 10° 337° (NNW) 2,320 5.7 -9.5°
Sets 18:24:38 0° 338° (NNW) 3,249 6.4 -9.7°
